[TLELIST] Archives

 

[list_settings.list_name] Current TLEs

April 25th 2009 PDT

HST 1 20580U 90037B 09115.17446270 .00000316 00000-0 11574-4 0 3739 2 20580 028.4685 088.2196 0003764 101.5994 258.5020 15.00477451841888 ISS (ZARYA) 1 25544U 98067A 09114.50526821 .00010952 00000-0 84965-4 0 7322 2 25544 051.6400 222.1391 0008501 279.0655 186.1052 15.72390425597503 CXO 1 25867U 99040B 09113.58333333 +.00000615 +00000-0 +10000-3 0 03175 2 25867 065.2142 071.0805 7421195 276.2496 355.2526 00.37809333004802 ____________________________________________________________________ These 2-Line ...Continue Reading

[list_settings.list_name] Current TLEs

April 24th 2009 PDT

HST 1 20580U 90037B 09112.38084535 +.00000299 +00000-0 +10246-4 0 03769 2 20580 028.4689 106.4394 0003724 072.6606 287.4389 15.00476624841463 ISS (ZARYA) 1 25544U 98067A 09114.10646991 .00012672 00000-0 97565-4 0 7308 2 25544 051.6407 224.1827 0008763 279.2929 086.9444 15.72388562597446 CXO 1 25867U 99040B 09113.58333333 +.00000615 +00000-0 +10000-3 0 03175 2 25867 065.2142 071.0805 7421195 276.2496 355.2526 00.37809333004802 ____________________________________________________________________ These 2-Line ...Continue Reading

[list_settings.list_name] Current TLEs

April 23rd 2009 PDT

HST 1 20580U 90037B 09111.38312400 +.00000281 +00000-0 +88578-5 0 03791 2 20580 028.4690 112.9462 0003681 061.9870 298.1092 15.00476285841316 ISS (ZARYA) 1 25544U 98067A 09112.79661553 .00014089 00000-0 10808-3 0 7232 2 25544 051.6404 230.8937 0008684 272.5117 234.2690 15.72359056597230 CXO 1 25867U 99040B 09110.95833333 +.00000574 +00000-0 +10000-3 0 03161 2 25867 065.1979 071.1783 7417500 276.2384 357.9636 00.37808224004793 ____________________________________________________________________ These 2-Line ...Continue Reading

[list_settings.list_name] Current TLEs

April 22nd 2009 PDT

HST 1 20580U 90037B 09112.18130114 .00000273 00000-0 82644-5 0 3711 2 20580 028.4689 107.7412 0003668 070.5819 289.5165 15.00476415841438 ISS (ZARYA) 1 25544U 98067A 09111.84188110 .00013194 00000-0 10165-3 0 7175 2 25544 051.6405 235.7844 0008586 267.5294 231.3891 15.72328152597080 CXO 1 25867U 99040B 09110.95833333 +.00000574 +00000-0 +10000-3 0 03161 2 25867 065.1979 071.1783 7417500 276.2384 357.9636 00.37808224004793 ____________________________________________________________________ These 2-Line ...Continue Reading

[list_settings.list_name] Current TLEs

April 21st 2009 PDT

HST 1 20580U 90037B 09109.45419505 +.00000325 +00000-0 +12244-4 0 03773 2 20580 028.4689 125.5281 0003614 040.9780 319.1083 15.00475959841025 ISS (ZARYA) 1 25544U 98067A 09111.11903935 .00011810 00000-0 91592-4 0 7127 2 25544 051.6419 239.4855 0008472 264.4749 100.1364 15.72302205596979 CXO 1 25867U 99040B 09110.95833333 +.00000574 +00000-0 +10000-3 0 03161 2 25867 065.1979 071.1783 7417500 276.2384 357.9636 00.37808224004793 ____________________________________________________________________ These 2-Line ...Continue Reading

[list_settings.list_name] Current TLEs

April 20th 2009 PDT

HST 1 20580U 90037B 09108.45647250 +.00000337 +00000-0 +13180-4 0 03832 2 20580 028.4691 132.0358 0003556 029.7603 330.3186 15.00475713840879 ISS (ZARYA) 1 25544U 98067A 09109.87152589 .00011900 00000-0 92366-4 0 7050 2 25544 051.6412 245.8749 0008547 259.2359 239.4074 15.72271617596771 CXO 1 25867U 99040B 09108.29166667 +.00000444 +00000-0 +10000-3 0 03159 2 25867 065.1850 071.2486 7413168 276.2411 354.9845 00.37806900004786 ____________________________________________________________________ These 2-Line ...Continue Reading

[list_settings.list_name] Current TLEs

April 19th 2009 PDT

HST 1 20580U 90037B 09109.18813569 .00000328 00000-0 12518-4 0 3699 2 20580 028.4691 127.2639 0003597 037.6213 322.4625 15.00475902840989 ISS (ZARYA) 1 25544U 98067A 09109.14498843 .00011402 00000-0 88772-4 0 7004 2 25544 051.6412 249.5961 0008535 256.7525 086.8111 15.72251720596658 CXO 1 25867U 99040B 09105.66666667 +.00000305 +00000-0 +10000-3 0 03147 2 25867 065.1743 071.3210 7408745 276.2470 357.6455 00.37807065004772 ____________________________________________________________________ These 2-Line ...Continue Reading

[list_settings.list_name] Current TLEs

April 18th 2009 PDT

HST 1 20580U 90037B 09107.45875012 .00000383 00000-0 16804-4 0 3680 2 20580 028.4685 138.5452 0003554 018.7299 341.3420 15.00475552840723 ISS (ZARYA) 1 25544U 98067A 09107.25341558 .00010037 00000-0 78873-4 0 6883 2 25544 051.6406 259.2833 0008648 249.5236 180.4745 15.72201988596364 CXO 1 25867U 99040B 09105.66666667 +.00000305 +00000-0 +10000-3 0 03147 2 25867 065.1743 071.3210 7408745 276.2470 357.6455 00.37807065004772 ____________________________________________________________________ These 2-Line ...Continue Reading

[list_settings.list_name] Current TLEs

April 17th 2009 PDT

HST 1 20580U 90037B 09105.46330828 +.00000441 +00000-0 +21266-4 0 03694 2 20580 028.4690 151.5765 0003544 000.6279 359.4353 15.00475449840425 ISS (ZARYA) 1 25544U 98067A 09106.49981230 .00010049 00000-0 79015-4 0 6843 2 25544 051.6407 263.1420 0008692 245.9646 235.8437 15.72185824596245 CXO 1 25867U 99040B 09105.66666667 +.00000305 +00000-0 +10000-3 0 03147 2 25867 065.1743 071.3210 7408745 276.2470 357.6455 00.37807065004772 ____________________________________________________________________ These 2-Line ...Continue Reading

[list_settings.list_name] Current TLEs

April 16th 2009 PDT

HST 1 20580U 90037B 09106.39451547 .00000409 00000-0 18768-4 0 3674 2 20580 028.4691 145.5036 0003528 011.5702 348.4946 15.00475722840569 ISS (ZARYA) 1 25544U 98067A 09105.80377806 .00010517 00000-0 82514-4 0 6786 2 25544 051.6405 266.7067 0008690 243.0356 256.6803 15.72172774596130 CXO 1 25867U 99040B 09105.66666667 +.00000305 +00000-0 +10000-3 0 03147 2 25867 065.1743 071.3210 7408745 276.2470 357.6455 00.37807065004772 ____________________________________________________________________ These 2-Line ...Continue Reading
  • This mailing list is a public mailing list - anyone may join or leave, at any time.
  • This mailing list is announce-only.

International Space Station (ISS) / Hubble Space Telescope (HST) / Chandra X-Ray Observatory Orbital Data via EMAIL

Privacy Policy:

Private list